Location: Minneapolis
(44.9800°N, 93.2640°W)
Time: 19:03:39
(UTC-05:00)

Iridium 96 - Visible Passes

Search period start: 30 June 2015 00:00
Search period end: 10 July 2015 00:00
Orbit: 776 x 779 km, 86.4° (Epoch: 30 June)

Date Brightness Start Highest point End Pass type
(mag) Time Alt. Az. Time Alt. Az. Time Alt. Az.
30 Jun 7.3 01:18:03 17° WSW 01:20:34 23° WNW 01:24:37 10° NNW visible
30 Jun 6.8 23:04:02 20° ESE 23:06:10 27° E 23:10:31 10° NNE visible
01 Jul 6.5 00:44:29 26° SW 00:46:45 39° W 00:51:39 10° N visible
01 Jul 7.4 22:30:28 11° ESE 22:32:55 15° ENE 22:35:58 10° NE visible
02 Jul 5.6 00:10:55 35° SSW 00:13:06 70° W 00:18:20 10° N visible
02 Jul 5.6 23:37:21 34° SSE 23:39:34 66° E 23:44:47 10° N visible
03 Jul 7.7 01:17:48 11° WSW 01:20:56 17° WNW 01:24:06 10° NNW visible
03 Jul 6.3 23:03:46 24° SE 23:06:09 37° E 23:10:58 10° NNE visible
04 Jul 7.1 00:44:13 18° WSW 00:47:01 28° WNW 00:51:28 10° NNW visible
04 Jul 7.0 22:30:10 14° ESE 22:32:51 21° E 22:36:47 10° NNE visible
05 Jul 6.2 00:10:38 26° SW 00:13:16 49° W 00:18:20 10° N visible
05 Jul 7.5 21:57:51 10° E 21:59:37 12° ENE 22:01:42 10° NE visible
05 Jul 5.5 23:37:02 30° S 23:39:39 88° W 23:44:55 10° N visible
06 Jul 8.0 01:19:25 10° W 01:21:21 12° WNW 01:23:00 10° NW visible
06 Jul 5.8 23:03:24 25° SSE 23:06:11 52° E 23:11:16 10° NNE visible
07 Jul 7.6 00:43:52 12° WSW 00:47:20 20° WNW 00:51:07 10° NNW visible
07 Jul 6.6 22:29:47 17° SE 22:32:48 30° E 22:37:20 10° NNE visible
08 Jul 6.8 00:10:14 18° SW 00:13:29 35° WNW 00:18:14 10° NNW visible
08 Jul 7.2 21:56:19 10° ESE 21:59:31 17° E 22:02:55 10° NE visible
08 Jul 5.9 23:36:36 23° SSW 23:39:47 62° W 23:44:59 10° N visible
09 Jul 5.5 23:02:56 23° S 23:06:14 75° E 23:11:28 10° N visible
